Regional Weather Roundup
Issued by NWS

Current Version | Previous Version | Text Only | Print | Product List | Glossary On
Versions: 1 2 3 4 5 6 7 8 9 10 11 12 13 14 15 16 17 18 19 20 21 22 23 24 25 26 27 28 29 30 31 32 33 34 35 36 37 38 39 40 41 42 43 44 45 46 47 48 49 50
000
ASUS45 KTFX 252310
RWRMT
MONTANA REGIONAL WEATHER ROUNDUP
NATIONAL WEATHER SERVICE GREAT FALLS MT
500 PM MDT THU AUG 25 2016

NOTE: "FAIR" INDICATES FEW OR NO CLOUDS BELOW 12000 FEET WITH NO
SIGNIFICANT WEATHER AND/OR OBSTRUCTIONS TO VISIBILITY.

MTZ001>007-043-260000-
WEST OF THE DIVIDE

CITY           SKY/WX    TMP DP  RH WIND       PRES   REMARKS
KALISPELL      PTSUNNY   75  35  23 NE10      30.12F
MISSOULA       SUNNY     75  32  20 SW5       30.11F
BUTTE          CLOUDY    66  25  21 NE3       30.18F
MULLAN PASS    SUNNY     63  28  26 CALM      30.24F
DEER LODGE       N/A     66  25  20 CALM      30.18F
EUREKA           N/A     73  36  25 W3        30.13F
HAMILTON         N/A     72  34  25 N6        30.10F
LIBBY            N/A     79  32  18 E3        30.09F
PLAINS           N/A     80  34  19 E2        30.09F
RONAN            N/A     74  35  24 CALM      30.17F
THOMPSON FALLS   N/A     79  34  19 NE2       30.11F
$$

MTZ008-052>055-260000-
SOUTHWEST MONTANA

CITY           SKY/WX    TMP DP  RH WIND       PRES   REMARKS
BOZEMAN        SUNNY     70  28  21 W7        30.15F
DILLON         CLOUDY    70  25  18 N9        30.14F
W YELLOWSTONE  MOSUNNY   66  16  14 NW7       30.18F
ENNIS          SUNNY     68  27  21 N13       30.20F
THREE FORKS      N/A     70  70 100 CALM      30.13F
$$

MTZ009-010-012-014-046-048-049-054-260000-
EAST SLOPES AND CENTRAL MONTANA

CITY           SKY/WX    TMP DP  RH WIND       PRES   REMARKS
CUT BANK       PTSUNNY   67  41  38 N12       30.19F
GREAT FALLS    CLOUDY    69  34  27 VRB5      30.17F
MALMSTROM AFB  MOSUNNY   68  36  31 N5        30.17F
HELENA         MOSUNNY   72  34  24 CALM      30.15F
CHOTEAU          N/A     70  28  21 N9        30.19F
CONRAD           N/A     71  34  25 CALM      30.18F
$$

MTZ011-013-016-021-045-047-050-051-260000-
NORTH CENTRAL MONTANA

CITY           SKY/WX    TMP DP  RH WIND       PRES   REMARKS
HAVRE          CLOUDY    70  37  29 NW5       30.13F
LEWISTOWN      CLOUDY    66  31  27 NW6       30.18F
N BAR RANCH    CLOUDY    63  34  34 N5        30.22S
CHINOOK          N/A     72  39  30 NW6       30.13F
$$

MTZ017>020-022>027-061-062-260000-
NORTHEAST MONTANA

CITY           SKY/WX    TMP DP  RH WIND       PRES   REMARKS
GLASGOW        PTSUNNY   71  40  32 W13       30.11F
JORDAN           N/A     72  34  24 VRB3      30.13F
SIDNEY         CLOUDY    76  40  27 W9        30.11F
WOLF POINT     PTSUNNY   76  39  26 VRB6      30.10F
POPLAR           N/A     73  37  27 S5        30.10F
SCOBEY           N/A     72  40  31 W10       30.09F
$$

MTZ028>42-056>058-260000-
SOUTHCENTRAL AND SOUTHEAST MONTANA

CITY           SKY/WX    TMP DP  RH WIND       PRES   REMARKS
BAKER          MOSUNNY   67  37  33 W9        30.19F
BILLINGS       MOSUNNY   70  37  29 VRB6      30.16F
LIVINGSTON     MOSUNNY   68  29  23 E10       30.16F
MILES CITY     SUNNY     70  38  31 S8        30.16F
EKALAKA          N/A     66  35  31 N9        30.17F
FORSYTH          N/A     72  37  28 CALM      30.16F
LAUREL           N/A     69  33  26 CALM      30.14F
ROUNDUP          N/A     70  35  27 S7        30.07F
$$

REGIONAL REPORTS...DAKOTAS

CITY           SKY/WX    TMP DP  RH WIND       PRES   REMARKS
WILLISTON      PTSUNNY   76  34  21 VRB5      30.09F
MINOT          SUNNY     74  39  28 W8        30.07S
DICKINSON      PTSUNNY   69  35  28 W10       30.13F
CROSBY           N/A     73  36  25 W7        30.09F
WATFORD CITY     N/A     73  39  29 N8        30.11S
BISMARCK       CLOUDY    67  47  48 W9        30.14F
GRAND FORKS    MOSUNNY   70  49  47 NW10      30.04S
FARGO          CLOUDY    69  50  50 NW12      30.07S
BUFFALO SD       N/A     67  38  34 W6        30.14F
RAPID CITY     SUNNY     69  40  34 NW8       30.21F
$$

REGIONAL REPORTS...WYOMING/IDAHO/WASHINGTON

CITY           SKY/WX    TMP DP  RH WIND       PRES   REMARKS
GILLETTE       CLOUDY    64  39  39 SE5       30.21F
SHERIDAN       MOSUNNY   68  39  34 SE9       30.18F
BUFFALO WY     SUNNY     62  41  46 S6        30.23F
CODY           CLOUDY    64  37  36 SE7       30.18F
YELLOWSTONE LA   N/A     58  27  30 CALM      30.25F
IDAHO FALLS    MOSUNNY   76  27  16 CALM      30.08F
SALMON         SUNNY     73  32  21 CALM      30.05F
BOISE          SUNNY     83  33  16 N9        30.00F
SPOKANE        MOSUNNY   82  32  16 N14G21    30.07F
$$

REGIONAL REPORTS...ALBERTA

CITY           SKY/WX    TMP DP  RH WIND       PRES   REMARKS
EDMONTON       MOSUNNY   63  52  67 N12G17    30.15S
CALGARY        LGT RAIN  55  48  76 N14G23    30.21S
LETHBRIDGE     PTSUNNY   59  45  58 NW25G31   30.20S
MEDICINE HAT   PTSUNNY   68  50  52 W13       30.13F
WATERTON GATE    N/A     55  45  67 SW9         N/A
MILK RIVER       N/A     68  45  42 NW14G20     N/A
$$

REGIONAL REPORTS...SASKATCHEWAN

CITY           SKY/WX    TMP DP  RH WIND       PRES   REMARKS
SWIFT CURRENT  MOSUNNY   64  46  52 W17G23    30.10F
REGINA         PTSUNNY   73  45  35 W14       30.05F
SASKATOON      PTSUNNY   70  52  52 SW9       30.03F
CYPRESS HILLS    N/A     59  45  58 W7          N/A
VAL MARIE        N/A     68  41  37 NW12        N/A
ROCKGLEN         N/A     63  45  51 W5          N/A
ASSINIBOIA       N/A     59  57  94 NW10        N/A
$$



USA.gov is the U.S. government's official web portal to all federal, state and local government web resources and services.